Location: Unspecified
(0.0000°N, 0.0000°E)
Time: 15:46:19
(UTC+00:00)

LightSail 2 - Pass Details

Date: 17 January 2020
Orbit: 698 x 723 km, 24.0° (Epoch: 25 February)

Event Time Altitude Azimuth Distance (km) Brightness Sun altitude
Exits shadow 05:32:47 - 257° (WSW) 2,570 7.5 -8.7°
Reaches altitude 10° 05:34:10 10° 248° (WSW) 2,179 7.2 -8.3°
Maximum altitude 05:37:50 19° 202° (SSW) 1,629 7.0 -7.5°
Drops below altitude 10° 05:41:29 10° 157° (SSE) 2,167 8.4 -6.6°
Sets 05:44:32 0° 139° (SE) 3,081 9.7 -5.9°
